Regional Weather Roundup
Issued by NWS

Home | Current Version | Previous Version | Text Only | Print | Product List | Glossary Off
Versions: 1 2 3 4 5 6 7 8 9 10 11 12 13 14 15 16 17 18 19 20 21 22 23 24 25 26 27 28 29 30 31 32 33 34 35 36 37 38 39 40 41 42 43 44 45 46 47 48 49 50

000
ASUS43 KMPX 291501
RWRMN
WEATHER ROUNDUP FOR MINNESOTA
NATIONAL WEATHER SERVICE TWIN CITIES/CHANHASSEN MN
1000 AM CDT THU JUN 29 2017


NOTE: "FAIR" INDICATES FEW OR NO CLOUDS BELOW 12,000 FEET WITH NO
SIGNIFICANT WEATHER AND/OR OBSTRUCTIONS TO VISIBILITY. N/A MEANS
CURRENT SKY AND/OR WEATHER CONDITIONS ARE NOT AVAILABLE.

MNZ060>063-068>070-291600-
   Twin Cities Metro

CITY           SKY/WX    TMP DP  RH WIND       PRES   REMARKS
TWIN CITIES    CLOUDY    67  58  72 W14       29.76R
ST PAUL        CLOUDY    67  60  78 W13G18    29.76R
CRYSTAL        CLOUDY    66  57  72 NW8       29.74R
BLAINE         CLOUDY    68  61  77 W12       29.75R
LAKEVILLE      CLOUDY    64  59  82 W8        29.78R
EDEN PRAIRIE   CLOUDY    67  59  75 W10       29.76R
SOUTH ST PAUL  CLOUDY    67  58  72 W8        29.76R
LAKE ELMO      CLOUDY    66  61  82 W8        29.76R
$$
MNZ001>005-007-008-013>017-022>024-027-028-291600-
   Northwest Minnesota

CITY           SKY/WX    TMP DP  RH WIND       PRES   REMARKS
BEMIDJI        PTSUNNY   64  58  79 NW8       29.77R
HALLOCK        MOSUNNY   66  63  88 CALM      29.79R
ROSEAU         SUNNY     66  63  88 CALM      29.79R
WARROAD        SUNNY     66  61  82 NE3       29.79R
THIEF RVR FALL CLOUDY    63  61  94 W7        29.81R
CROOKSTON      CLOUDY    63  61  94 NE3       29.80F
FOSSTON        CLOUDY    63  61  94 NW6       29.80F
DETROIT LAKES  CLOUDY    63  59  88 N5        29.79F
MOORHEAD       CLOUDY    64  57  77 N7        29.79F
PARK RAPIDS    MOSUNNY   67  55  65 N10       29.76F
MAHNOMEN       CLOUDY    63  58  86 N6        29.78F
$$
MNZ006-009>011-018-025>026-291600-
   North Central Minnesota

CITY           SKY/WX    TMP DP  RH WIND       PRES   REMARKS
BAUDETTE       PTSUNNY   69  60  73 NE6       29.75R
FLAG ISLAND    PTSUNNY   66  57  72 N3        29.76R
INTL FALLS     CLOUDY    63  57  81 N7        29.74R
WASKISH        MOSUNNY   68  61  77 N5        29.76R
BIG FORK       CLOUDY    63  57  82 N3        29.74R
LONGVILLE      CLOUDY    63  57  82 NW7       29.75R
GRAND RAPIDS   CLOUDY    62  59  90 NW10      29.74S FOG
CRANE LAKE     CLOUDY    59  57  94 N5        29.72R
ORR            CLOUDY    61  55  82 CALM      29.70R
COOK           CLOUDY    61  57  88 NW3       29.72R
WALKER         CLOUDY    63  57  81 NW8       29.76S
$$
MNZ012-019>021-037-291600-
   Northeast Minnesota

CITY           SKY/WX    TMP DP  RH WIND       PRES   REMARKS
DULUTH         CLOUDY    60  59  96 NW9       29.67R
ELY            DRIZZLE   57  57 100 N3        29.68R
HIBBING        CLOUDY    59  58  96 N9        29.70R
EVELETH        CLOUDY    60  56  88 NW8       29.71R FOG
DULUTH HARBOR  CLOUDY    64  61  88 W12       29.65S
TWO HARBORS    CLOUDY    66  61  82 N3        29.63R
SILVER BAY     CLOUDY    63  61  94 N3        29.61S
GRAND MARAIS     N/A     64  59  83 N8G21     29.59R
G MARAIS ARPRT CLOUDY    55  52  88 N14G20    29.64S
$$
MNZ029>031-032-039>041-046>048-054>057-064-291600-
   West Central Minnesota

CITY           SKY/WX    TMP DP  RH WIND       PRES   REMARKS
FERGUS FALLS   CLOUDY    63  57  82 NE9       29.74F
WHEATON        CLOUDY    63  57  82 NW6       29.82R
MORRIS         PTSUNNY   66  59  77 N3        29.78R HAZE
ALEXANDRIA     CLOUDY    65  59  81 N9        29.77F
ELBOW LAKE       N/A     62  60  91 NW7       29.77F
WADENA         PTSUNNY   64  57  77 NW7       29.76F
GLENWOOD       CLOUDY    64  57  77 N9        29.77F
APPLETON       CLOUDY    66  57  72 N6        29.79R
BENSON         CLOUDY    66  57  72 N5        29.81R
ORTONVILLE     CLOUDY    66  57  72 NW6       29.79R
MADISON        PTSUNNY   70  61  73 CALM      29.81R
WILLMAR        CLOUDY    66  61  82 NW5       29.80R
$$
MNZ033>034-036-042>043-049>051-058-059-291600-
   Central Minnesota

CITY           SKY/WX    TMP DP  RH WIND       PRES   REMARKS
ST CLOUD       CLOUDY    64  60  87 NW8       29.75S
SAUK CENTRE    CLOUDY    63  58  83 NW8       29.77S
PAYNESVILLE    CLOUDY    64  63  99 NW7       29.78S
AITKIN         CLOUDY    63  57  82 NW9       29.71F
PINE RIVER     PTSUNNY   64  57  77 MISG      29.79S
BRAINERD       CLOUDY    63  58  83 NW10      29.75R
STAPLES        CLOUDY    64  55  72 NW9       29.76F
LONG PRAIRIE   CLOUDY    63  55  77 W8        29.78S
LITTLE FALLS   CLOUDY    64  55  72 W7        29.76S
LITCHFIELD     CLOUDY    66  61  82 NW7       29.78R
BUFFALO        CLOUDY    65  58  77 W10       29.78R
MAPLE LAKE     CLOUDY    66  60  83 NW8       29.78R
HUTCHINSON     CLOUDY    65  61  86 W7        29.80R
$$
MNZ037-044-045-052-053-291600-
   East Central Minnesota

CITY           SKY/WX    TMP DP  RH WIND       PRES   REMARKS
PRINCETON      CLOUDY    64  61  88 W9        29.75R
MORA           CLOUDY    63  55  77 NW7       29.73F
CAMBRIDGE      CLOUDY    66  57  72 NW10G18   29.73R
RUSH CITY      CLOUDY    63  57  82 NW5       29.72F
MOOSE LAKE     CLOUDY    61  57  88 NW7       29.68F
HINCKLEY       CLOUDY    64  59  82 NW6       29.71F
CLOQUET        CLOUDY    61  55  82 NW8       29.69S FOG
MCGREGOR       CLOUDY    61  59  94 NW9G17    29.72S
$$
MNZ071>073-080-081-089-090-097-098-291600-
   Southwest Minnesota

CITY           SKY/WX    TMP DP  RH WIND       PRES   REMARKS
MONTEVIDEO     CLOUDY    64  64 100 NW5       29.81R
GRANITE FALLS  CLOUDY    65  60  84 NW5       29.82R
CANBY          CLOUDY    66  59  77 CALM      29.84R
MARSHALL       CLOUDY    63  59  87 W7        29.83R
REDWOOD FALLS  CLOUDY    63  59  87 NW6       29.80R
OLIVIA         CLOUDY    63  57  82 NW5       29.79R
PIPESTONE      CLOUDY    70  57  64 N3        29.82S
WINDOM         MOSUNNY   72  63  73 NW6       29.81R
WORTHINGTON    CLOUDY    70  62  76 N6        29.82R
JACKSON        CLOUDY    70  63  78 CALM      29.81R
TRACY          CLOUDY    65  62  89 NW6       29.83R
SLAYTON        CLOUDY    67  61  82 NW3       29.83R
$$
MNZ065>067-074>077-082>085-091>093-291600-
   South Central Minnesota

CITY           SKY/WX    TMP DP  RH WIND       PRES   REMARKS
MANKATO        PTSUNNY   67  61  81 W12       29.78F
NEW ULM        CLOUDY    64  61  88 NW5       29.80R
ST JAMES       PTSUNNY   68  63  83 W12       29.80S
FAIRMONT       CLOUDY    69  63  81 NW8       29.79R
GLENCOE        CLOUDY    65  62  89 W7        29.78R
FARIBAULT      CLOUDY    68  61  77 W7        29.78R
OWATONNA       MOSUNNY   70  61  73 W7        29.77R
WASECA         MOSUNNY   68  61  77 W7        29.79R
ALBERT LEA     CLOUDY    68  63  83 N7        29.77R
$$
MNZ078>079-086>088-094>096-291600-
   Southeast Minnesota

CITY           SKY/WX    TMP DP  RH WIND       PRES   REMARKS
ROCHESTER      CLOUDY    68  62  81 W14       29.77R
RED WING       CLOUDY    70  57  64 NW10      29.73S
STANTON        CLOUDY    69  61  75 W13       29.75S
DODGE CENTER   CLOUDY    66  61  82 W9        29.77R
WINONA         PTSUNNY   70  61  73 W8        29.74R
AUSTIN         CLOUDY    68  61  77 NW10      29.76R
PRESTON        CLOUDY    67  60  78 NW10      29.77R
$$
ABBREVIATIONS USED IN REMARKS
   TC - TEMPERATURES IN CELSIUS
  WCI - WIND CHILL INDEX
   HX - HEAT INDEX
  VSB - VISIBILITY
$$




USA.gov is the U.S. government's official web portal to all federal, state and local government web resources and services.